Location: Fours
(44.3167°N, 6.7000°E)
Time: 11:40:30
(UTC+00:00)

Cosmos 2263 Rocket - Pass Details

Date: 16 October 2021
Orbit: 825 x 847 km, 71.0° (Epoch: 02 December)

Event Time Altitude Azimuth Distance (km) Brightness Sun altitude
Rises 19:03:18 0° 331° (NNW) 3,374 5.9 -25.0°
Reaches altitude 10° 19:05:46 10° 328° (NNW) 2,435 5.1 -25.4°
Maximum altitude 19:11:15 62° 249° (WSW) 926 2.5 -26.4°
Enters shadow 19:13:16 38° 186° (S) 1,243 2.9 -26.8°
